Location: ?
(35.4214°N, 139.3011°E)
Time: 21:08:58
(UTC+00:00)

Cosmos 923 Rocket - Pass Details

Date: 14 July 2020
Orbit: 757 x 786 km, 74.0° (Epoch: 10 August)

Event Time Altitude Azimuth Distance (km) Brightness Sun altitude
Rises 11:24:39 0° 200° (SSW) 3,215 7.0 -15.3°
Reaches altitude 10° 11:27:01 10° 202° (SSW) 2,297 6.3 -15.6°
Maximum altitude 11:32:13 75° 288° (WNW) 801 4.2 -16.4°
Drops below altitude 10° 11:37:31 10° 14° (NNE) 2,331 6.9 -17.2°
Sets 11:39:56 0° 16° (NNE) 3,266 7.7 -17.6°
